TimeEDT,TemperatureF,Dew PointF,Humidity,Sea Level PressureIn,VisibilityMPH,Wind Direction,Wind SpeedMPH,Gust SpeedMPH,PrecipitationIn,Events,Conditions,WindDirDegrees,DateUTC
12:53 AM,64.9,63.0,93,29.96,7.0,Calm,Calm,-,N/A,,Clear,0,2013-05-21 04:53:00
1:36 AM,64.4,62.6,94,29.96,1.8,Calm,Calm,-,N/A,,Clear,0,2013-05-21 05:36:00
1:44 AM,64.4,62.6,94,29.96,3.0,Calm,Calm,-,N/A,,Clear,0,2013-05-21 05:44:00
1:53 AM,64.0,63.0,96,29.96,4.0,Calm,Calm,-,N/A,,Clear,0,2013-05-21 05:53:00
2:53 AM,64.9,64.0,97,29.93,4.0,Calm,Calm,-,N/A,,Clear,0,2013-05-21 06:53:00
3:07 AM,62.6,62.6,100,29.92,2.5,Calm,Calm,-,N/A,,Clear,0,2013-05-21 07:07:00
3:19 AM,62.6,62.6,100,29.92,1.0,Calm,Calm,-,N/A,,Mist,0,2013-05-21 07:19:00
3:26 AM,62.6,62.6,100,29.92,0.2,Calm,Calm,-,N/A,Fog,Fog,0,2013-05-21 07:26:00
3:53 AM,62.1,62.1,100,29.92,0.5,Calm,Calm,-,N/A,Fog,Fog,0,2013-05-21 07:53:00
4:04 AM,62.6,60.8,94,29.92,1.8,Calm,Calm,-,N/A,,Mostly Cloudy,0,2013-05-21 08:04:00
4:16 AM,62.6,60.8,94,29.92,0.8,Calm,Calm,-,N/A,,Mist,0,2013-05-21 08:16:00
4:21 AM,62.6,62.6,100,29.93,1.2,Calm,Calm,-,N/A,,Partly Cloudy,0,2013-05-21 08:21:00
4:31 AM,62.6,62.6,100,29.93,2.5,Calm,Calm,-,N/A,,Partly Cloudy,0,2013-05-21 08:31:00
4:49 AM,62.6,62.6,100,29.94,1.2,Calm,Calm,-,N/A,,Clear,0,2013-05-21 08:49:00
4:53 AM,62.1,62.1,100,29.94,1.2,Calm,Calm,-,N/A,,Clear,0,2013-05-21 08:53:00
5:03 AM,62.6,62.6,100,29.94,2.5,Calm,Calm,-,N/A,,Clear,0,2013-05-21 09:03:00
5:22 AM,62.6,60.8,94,29.94,1.2,South,3.5,-,N/A,,Partly Cloudy,170,2013-05-21 09:22:00
5:36 AM,62.6,62.6,100,29.94,2.5,Calm,Calm,-,N/A,,Clear,0,2013-05-21 09:36:00
5:53 AM,62.1,62.1,100,29.94,2.5,Calm,Calm,-,N/A,,Clear,0,2013-05-21 09:53:00
6:37 AM,64.4,62.6,94,29.94,3.0,Calm,Calm,-,N/A,,Clear,0,2013-05-21 10:37:00
6:53 AM,64.9,64.0,97,29.94,4.0,South,3.5,-,N/A,,Clear,170,2013-05-21 10:53:00
7:53 AM,70.0,64.9,84,29.94,6.0,SSW,3.5,-,N/A,,Haze,210,2013-05-21 11:53:00
8:53 AM,73.0,66.0,79,29.94,8.0,Variable,4.6,-,N/A,,Clear,0,2013-05-21 12:53:00
9:53 AM,77.0,66.9,71,29.92,10.0,SSW,6.9,-,N/A,,Clear,200,2013-05-21 13:53:00
10:53 AM,81.0,66.9,62,29.91,10.0,SSW,8.1,-,N/A,,Clear,200,2013-05-21 14:53:00
11:53 AM,84.0,69.1,61,29.88,10.0,Variable,5.8,-,N/A,,Clear,0,2013-05-21 15:53:00
12:53 PM,87.1,68.0,53,29.86,10.0,SSW,8.1,-,N/A,,Clear,200,2013-05-21 16:53:00
1:53 PM,87.1,68.0,53,29.85,10.0,SW,6.9,18.4,N/A,,Clear,220,2013-05-21 17:53:00
2:53 PM,88.0,69.1,53,29.83,10.0,SSW,12.7,19.6,N/A,,Partly Cloudy,200,2013-05-21 18:53:00
3:53 PM,88.0,68.0,51,29.81,10.0,SSW,11.5,18.4,N/A,,Clear,210,2013-05-21 19:53:00
4:53 PM,87.1,66.9,51,29.80,10.0,South,11.5,20.7,N/A,,Clear,180,2013-05-21 20:53:00
5:53 PM,82.9,68.0,60,29.82,10.0,SSW,9.2,21.9,N/A,,Clear,200,2013-05-21 21:53:00
6:53 PM,81.0,68.0,65,29.86,10.0,SE,9.2,-,N/A,,Overcast,140,2013-05-21 22:53:00
7:53 PM,79.0,66.9,66,29.87,10.0,Variable,5.8,-,N/A,,Clear,0,2013-05-21 23:53:00
8:53 PM,73.9,68.0,82,29.86,10.0,Variable,4.6,-,0.00,Rain,Light Rain,0,2013-05-22 00:53:00
9:53 PM,71.1,66.0,84,29.87,10.0,NE,5.8,-,0.00,,Overcast,50,2013-05-22 01:53:00
10:48 PM,73.4,64.4,73,29.88,10.0,Calm,Calm,-,N/A,,Mostly Cloudy,0,2013-05-22 02:48:00
10:53 PM,70.0,64.9,84,29.88,10.0,ENE,8.1,-,N/A,,Mostly Cloudy,70,2013-05-22 02:53:00
11:53 PM,63.0,59.0,87,29.92,10.0,NE,8.1,-,N/A,,Overcast,50,2013-05-22 03:53:00